This is the latest recevied weather packets stored in our database for station/object LKKB. If no packets are shown the sender has not sent any weather packets the latest 1 day(s).
| Time | Temp. | Humidity | Pressure | Rain* | Wind** | Luminosity | Snow |
|---|---|---|---|---|---|---|---|
| 1778153581 | 15.56° C | 55% | 1011 hPa | - | - | - | - |
| 1778152682 | 16.67° C | 55% | 1011 hPa | - | - | - | - |
| 1778151781 | 16.67° C | 55% | 1011 hPa | - | - | - | - |
| 1778150882 | 15.56° C | 59% | 1011 hPa | - | - | - | - |
| 1778149981 | 15.56° C | 59% | 1011 hPa | - | - | - | - |
| 1778149081 | 15.56° C | 59% | 1011 hPa | - | - | - | - |
| 1778148181 | 15.56° C | 59% | 1011 hPa | - | - | - | - |
| 1778147281 | 15° C | 62% | 1011 hPa | - | - | - | - |
| 1778146381 | 15° C | 62% | 1011 hPa | - | - | - | - |
| 1778145481 | 15.56° C | 63% | 1010 hPa | - | - | - | - |
| 1778144581 | 15.56° C | 63% | 1010 hPa | - | - | - | - |
| 1778143682 | 15.56° C | 67% | 1010 hPa | - | - | - | - |
| 1778142781 | 15.56° C | 67% | 1010 hPa | - | - | - | - |
| 1778141882 | 15° C | 67% | 1010 hPa | - | - | - | - |
| 1778140981 | 15° C | 67% | 1010 hPa | - | - | - | - |
| 1778140082 | 13.89° C | 71% | 1010 hPa | - | - | - | - |
| 1778139181 | 13.89° C | 71% | 1010 hPa | - | - | - | - |
| 1778138282 | 13.89° C | 76% | 1010 hPa | - | - | - | - |
| 1778137381 | 13.89° C | 76% | 1010 hPa | - | - | - | - |
| 1778136481 | 13.89° C | 82% | 1009 hPa | - | - | - | - |
| 1778135581 | 13.89° C | 82% | 1009 hPa | - | - | - | - |
| 1778134681 | 12.78° C | 87% | 1009 hPa | - | - | - | - |
| 1778133781 | 12.78° C | 87% | 1009 hPa | - | - | - | - |
| 1778132881 | 11.67° C | 87% | 1009 hPa | - | - | - | - |
| 1778131981 | 11.67° C | 87% | 1009 hPa | - | - | - | - |
* Rain since midnight (hover to see other rain measurements)
** Current wind speed in m/s (hover to see current wind gust speed)